Погода в Удине

Италия     46°04′08″N   13°14′39″E
темп.,
°C
ветер,
м/с
пор.,
м/с
влажн.,
%
обл.,
%
осадки,
мм/ч
давл.,
гПа
погр.,
м
8 декабря, ср
ср801:00+1св22716 0.0 101320
04:00+1ссв226871 0.0 101213
07:00+1св2266100 0.0 101117
10:00+3ссв2366100 0.3 101085
13:00+6ссв2350100 0.3 1007286
16:00+3ссв3586100 1.8 1005268
19:00+5св4892100 7.9 1003331
22:00+5св71193100 15.1 1000465
9 декабря, чт
чт901:00+8вюв2594100 37.4 997208
04:00+5св5990100 2.3 997228
07:00+5с2494100 5.3 998214
10:00+5св1293100 2.6 1000128
13:00+4с3692100 9.4 1000516
16:00+4всв2393100 4.7 1003184
19:00+4ю0192100 5.1 100414
22:00+3ссз2393100 0.0 100769
10 декабря, пт
пт1001:00+3с1288100 0.0 100712
04:00+2ссв2282100 0.0 100725
07:00+1ссв228011 0.0 100612
10:00+3св1272100 0.0 1006152
13:00+5в117074 0.0 1005322
16:00+4в1179100 0.0 100310
19:00+3св1183100 0.0 100312
22:00+3ссв3481100 0.0 100385
11 декабря, сб
сб1101:00+3ссв3377100 0.0 100445
04:00+2ссв467590 0.0 100398
07:00+1ссв477268 0.0 100498
10:00+4ссв1466100 0.0 1006130
13:00+7сз11586 0.0 1009327
16:00+5с33755 0.0 101044
19:00+2ссв34736 0.0 101256
22:00+1с23730 0.0 101532
12 декабря, вс
вс1201:00+1ссв23710 0.0 101735
04:00+1ссв23680 0.0 101839
07:000с34655 0.0 102052
10:00+3ссв225899 0.0 1022124
13:00+7ссз124718 0.0 1022339
16:00+4з1164100 0.0 102310
19:00+2с117398 0.0 102511
22:00+1ссв22715 0.0 102617